Custer, SD

4:09 AM MDT on April 26, 2017 (GMT -0600)
Custer County

Weather History for KCUT - October, 2013

Change the Weather History Date:

Friday, October 4, 2013

  Actual Average Record
Temperature  
Mean Temperature 29 °F 46 °F  
Max Temperature 32 °F 59 °F 81 °F (1992)
Min Temperature 25 °F 34 °F 16 °F (1964)
Degree Days  
Heating Degree Days 36 19  
Month to date heating degree days 90 73  
Since 1 July heating degree days 409 559  
Cooling Degree Days 0 0  
Month to date cooling degree days 0 0  
Year to date cooling degree days 187 177  
Moisture  
Dew Point 25 °F    
Average Humidity 92    
Maximum Humidity 100    
Minimum Humidity 83    
Precipitation  
Precipitation 0.89 in 0.06 in 1.00 in (2005)
Month to date precipitation 1.41 0.27  
Year to date precipitation 18.66 16.76  
Sea Level Pressure  
Sea Level Pressure 29.99 in    
Wind  
Wind Speed 18 mph (North)    
Max Wind Speed 25 mph    
Max Gust Speed 50 mph    
Visibility 1 miles    
Events Fog , Snow    
T = Trace of Precipitation, MM = Missing Value Source: NWS Daily Summary

Daily Weather History Graph

Daily Weather History Graph

Search for Another Location

Airport or City:

Trip Planner

Search our weather history database for the weather conditions in past years. The results will help you decide how hot, cold, wet, or windy it might be!

Date:

Astronomy

Oct. 04, 2013 Rise Set
Actual Time 6:55 AM MDT 6:29 PM MDT
Civil Twilight 6:27 AM MDT 6:58 PM MDT
Nautical Twilight 5:53 AM MDT 7:31 PM MDT
Astronomical Twilight 5:20 AM MDT 8:04 PM MDT
Moon 6:34 AM MDT (10/4) 6:12 PM MDT (10/4)
Length of Visible Light 12h 30m
Length of Day
11h 33m
Waning Crescent, 0% of the Moon is Illuminated
Oct 4
Waning Crescent
Oct 4
New
Oct 11
First Quarter
Oct 18
Full
Oct 26
Last Quarter

Hourly Weather History & Observations

Time (MDT) Temp. Windchill Dew Point Humidity Pressure Visibility Wind Dir Wind Speed Gust Speed Precip Events Conditions
12:01 AM 32.0 °F 20.1 °F 30.2 °F 93% 29.98 in 0.5 mi NNE 19.6 mph 31.1 mph 0.02 in Fog , Snow Snow
12:32 AM 32.0 °F 19.5 °F 30.2 °F 93% 29.96 in 0.8 mi NNE 21.9 mph 31.1 mph 0.07 in Snow Light Snow
12:53 AM 32.0 °F 20.8 °F 30.0 °F 92% 30.00 in 1.0 mi NNE 17.3 mph 26.5 mph 0.10 in Snow Light Snow
1:41 AM 30.2 °F 17.1 °F 30.2 °F 100% 29.94 in 0.5 mi NNE 21.9 mph 34.5 mph 0.03 in Fog , Snow Snow
1:53 AM 30.9 °F 19.1 °F 30.0 °F 96% 29.97 in 0.8 mi NE 18.4 mph 31.1 mph 0.03 in Snow Light Snow
2:05 AM 30.2 °F 18.5 °F 28.4 °F 93% 29.94 in 1.0 mi NE 17.3 mph 33.4 mph 0.01 in Snow Light Snow
2:49 AM 30.2 °F 17.4 °F 28.4 °F 93% 29.93 in 1.8 mi NE 20.7 mph 36.8 mph 0.03 in Snow Light Snow
2:53 AM 30.0 °F 17.9 °F 28.0 °F 92% 29.97 in 1.8 mi NE 18.4 mph 34.5 mph 0.03 in Snow Light Snow
3:12 AM 30.2 °F 17.4 °F 28.4 °F 93% 29.92 in 1.2 mi NE 20.7 mph 34.5 mph 0.01 in Snow Light Snow
3:19 AM 30.2 °F 16.5 °F 28.4 °F 93% 29.91 in 1.2 mi NE 24.2 mph 39.1 mph 0.01 in Snow Light Snow
3:39 AM 28.4 °F 17.5 °F 28.4 °F 100% 29.91 in 0.8 mi NNE 13.8 mph 31.1 mph 0.03 in Snow Light Snow
3:53 AM 28.9 °F 16.1 °F 28.0 °F 96% 29.97 in 1.0 mi NNE 19.6 mph 32.2 mph 0.05 in Snow Light Snow
4:06 AM 28.4 °F 15.4 °F 28.4 °F 100% 29.92 in 1.2 mi NNE 19.6 mph 35.7 mph 0.02 in   Overcast
4:16 AM 28.4 °F 15.4 °F 28.4 °F 100% 29.91 in 1.2 mi NNE 19.6 mph 31.1 mph 0.02 in Snow Light Snow
4:53 AM 28.9 °F 16.5 °F 27.0 °F 92% 29.98 in 1.2 mi NNE 18.4 mph 32.2 mph 0.04 in Snow Light Snow
5:06 AM 28.4 °F 15.4 °F 26.6 °F 93% 29.92 in 0.8 mi NNE 19.6 mph 34.5 mph 0.01 in Snow Light Snow
5:19 AM 28.4 °F 14.1 °F 26.6 °F 93% 29.92 in 0.8 mi NNE 24.2 mph 34.5 mph 0.02 in Snow Light Snow
5:53 AM 28.9 °F 16.5 °F 27.0 °F 92% 29.96 in 0.5 mi NNE 18.4 mph 35.7 mph 0.07 in Fog , Snow Snow
6:53 AM 28.9 °F 14.5 °F 27.0 °F 92% 30.01 in 0.8 mi NNE 25.3 mph 40.3 mph 0.03 in Snow Light Snow
7:53 AM 28.9 °F 15.1 °F 27.0 °F 92% 30.01 in 0.2 mi NNE 23.0 mph 46.0 mph 0.04 in Fog , Snow Snow
8:11 AM 28.4 °F 13.3 °F 26.6 °F 93% 29.94 in 0.2 mi NNE 27.6 mph 49.5 mph 0.02 in Fog , Snow Heavy Snow
8:36 AM 28.4 °F 13.8 °F 26.6 °F 93% 29.93 in 0.2 mi NNE 25.3 mph 46.0 mph 0.04 in Fog , Snow Light Snow
8:53 AM 28.9 °F 14.8 °F 27.0 °F 92% 30.00 in 0.2 mi NNE 24.2 mph 42.6 mph 0.05 in Fog , Snow Snow
9:41 AM 28.4 °F 14.7 °F 26.6 °F 93% 29.95 in 0.5 mi NNE 21.9 mph 33.4 mph 0.04 in Fog , Snow Light Snow
9:48 AM 28.4 °F 14.1 °F 26.6 °F 93% 29.94 in 0.5 mi NNE 24.2 mph 36.8 mph 0.04 in Fog , Snow Light Snow
9:53 AM 28.9 °F 15.4 °F 26.1 °F 89% 30.02 in 0.5 mi NNE 21.9 mph 36.8 mph 0.04 in Fog , Snow Light Snow
10:02 AM 28.4 °F 17.0 °F 26.6 °F 93% 29.96 in 0.2 mi NNE 15.0 mph 39.1 mph 0.02 in Fog , Snow Snow
10:53 AM 28.0 °F 14.9 °F 26.1 °F 92% 30.04 in 0.2 mi North 19.6 mph 34.5 mph 0.05 in Fog , Snow Snow
11:53 AM 28.0 °F 16.1 °F 26.1 °F 92% 30.02 in 0.2 mi NNE 16.1 mph 29.9 mph 0.06 in Fog , Snow Snow
12:53 PM 27.0 °F 15.2 °F 25.0 °F 92% 30.01 in 0.2 mi North 15.0 mph 33.4 mph 0.04 in Fog , Snow Snow
1:53 PM 26.1 °F 12.3 °F 24.1 °F 92% 30.01 in 0.2 mi North 19.6 mph 32.2 mph 0.05 in Fog , Snow Heavy Snow
2:41 PM 26.6 °F 14.3 °F 24.8 °F 93% 29.92 in 0.2 mi North 16.1 mph 38.0 mph 0.04 in Fog Light Freezing Fog
2:53 PM 26.1 °F 11.3 °F 24.1 °F 92% 30.01 in 0.2 mi North 23.0 mph 40.3 mph 0.05 in Fog Light Freezing Fog
3:53 PM 25.0 °F 13.1 °F 23.0 °F 92% 30.04 in 0.2 mi North 13.8 mph 33.4 mph 0.09 in Fog Light Freezing Fog
4:53 PM 25.0 °F 12.6 °F 23.0 °F 92% 30.06 in 0.2 mi North 15.0 mph 31.1 mph 0.07 in Fog Light Freezing Fog
5:32 PM 24.8 °F 10.3 °F 23.0 °F 93% 29.97 in 0.2 mi NNW 20.7 mph 38.0 mph 0.04 in Fog Light Freezing Fog
5:53 PM 25.0 °F 11.7 °F 23.0 °F 92% 30.08 in 0.2 mi North 17.3 mph 29.9 mph 0.05 in Fog Light Freezing Fog
6:20 PM 24.8 °F 11.9 °F 23.0 °F 93% 29.98 in 0.5 mi North 16.1 mph 32.2 mph 0.02 in Fog Light Freezing Fog
6:32 PM 24.8 °F 13.4 °F 23.0 °F 93% 29.99 in 1.0 mi NNW 12.7 mph 24.2 mph 0.03 in   Mist
6:39 PM 24.8 °F 12.9 °F 23.0 °F 93% 29.99 in 0.8 mi NNW 13.8 mph 28.8 mph 0.03 in   Mist
6:53 PM 25.0 °F 13.1 °F 23.0 °F 92% 30.10 in 0.5 mi NNW 13.8 mph 24.2 mph 0.05 in Fog Light Freezing Fog
7:53 PM 25.0 °F 14.8 °F 23.0 °F 92% 30.11 in 0.5 mi NW 10.4 mph 25.3 mph 0.05 in Fog , Snow Snow
8:27 PM 26.6 °F 15.2 °F 23.0 °F 86% 30.01 in 0.8 mi NNW 13.8 mph 26.5 mph 0.02 in Snow Light Snow
8:53 PM 26.1 °F 14.5 °F 23.0 °F 88% 30.10 in 0.8 mi NW 13.8 mph 31.1 mph 0.03 in Snow Light Snow
9:09 PM 26.6 °F 15.7 °F 23.0 °F 86% 30.00 in 1.0 mi NNW 12.7 mph 25.3 mph 0.26 in Snow Light Snow
9:32 PM 24.8 °F 14.6 °F 23.0 °F 93% 30.00 in 0.8 mi NNW 10.4 mph 24.2 mph 0.27 in Snow Light Snow
9:53 PM 26.1 °F 14.0 °F 23.0 °F 88% 30.09 in 0.8 mi NW 15.0 mph 29.9 mph 0.28 in Snow Light Snow
10:10 PM 26.6 °F 13.4 °F 23.0 °F 86% 29.99 in 1.0 mi NNW 18.4 mph 34.5 mph 0.01 in Snow Light Snow
10:13 PM 26.6 °F 14.3 °F 21.2 °F 80% 29.99 in 0.8 mi NNW 16.1 mph 34.5 mph 0.01 in Snow Light Snow
10:26 PM 26.6 °F 15.2 °F 21.2 °F 80% 29.99 in 1.0 mi NNW 13.8 mph 31.1 mph 0.02 in Snow Light Snow
10:53 PM 25.0 °F 12.2 °F 21.9 °F 88% 30.09 in 0.8 mi NW 16.1 mph 29.9 mph 0.02 in Snow Light Snow
11:12 PM 24.8 °F 12.4 °F 21.2 °F 86% 29.99 in 0.8 mi NNW 15.0 mph 28.8 mph 0.01 in Snow Light Snow
11:42 PM 24.8 °F 11.1 °F 21.2 °F 86% 29.98 in 0.5 mi NW 18.4 mph 29.9 mph 0.02 in Fog , Snow Snow
11:53 PM 24.1 °F 10.6 °F 21.0 °F 88% 30.10 in 0.8 mi NW 17.3 mph 26.5 mph 0.03 in Snow Light Snow